[[{"header":{"parameterUnit":"m.s-1","parameterCategory":1,"la1":30.2991,"la2":30.254,"lo1":-89.0895,"lo2":-89.0444,"dy":0.0017,"dx":0.0017,"nx":28,"ny":28,"refTime":"2024-04-19T21:00:00:Z","depth":0,"parameterNumber":2,"parameterNumberName":"U-component_of_WINDS"},"data":[0,0,0,0,0,0,0,0,0,0,0,0,0,0,0,0,0,0,0,0,0,0,0,0,0,0,0,0,0,0,0,0,0,0,0,0,0,0,0,0,0,0,0,0,0,0,0,0,0,0,0,0,0,0,0,0,0,0,-0.1317,-0.1316,0,-0.1194,-0.1192,-0.1191,-0.1145,-0.1146,-0.1146,-0.1147,-0.1018,-0.1014,-0.101,0,0,0,0,0,0,0,0,0,0,0,0,0,-0.1513,-0.151,-0.1317,-0.1316,-0.1314,-0.1194,-0.1192,-0.1191,-0.1145,-0.1146,-0.1146,-0.1147,-0.1019,-0.1015,-0.101,0,0,0,0,0,0,0,0,0,0,0,0,0,-0.1413,-0.1509,-0.1318,-0.1277,-0.1272,-0.1194,-0.1192,-0.119,-0.1145,-0.1146,-0.1147,-0.1147,-0.1021,-0.1015,-0.1009,-0.0962,0,0,-0.0992,-0.0989,0,0,0,0,0,0,0,0,-0.1418,-0.1405,-0.1285,-0.128,-0.1274,-0.1186,-0.1214,-0.1113,-0.1145,-0.1194,-0.1147,-0.1147,-0.1073,-0.1063,-0.1038,-0.0956,-0.095,-0.0991,-0.0988,-0.0985,-0.0984,0,0,0,0,0,0,0,-0.1425,-0.141,-0.1268,-0.1283,-0.1277,-0.1265,-0.1251,-0.1195,-0.1131,-0.1189,-0.1186,-0.1172,-0.107,-0.1044,-0.1035,-0.0948,-0.0991,-0.0986,-0.0983,-0.0981,-0.082,-0.0819,0,0,0,0,0,0,-0.1439,-0.1417,-0.1272,-0.1265,-0.1349,-0.1261,-0.1246,-0.1214,-0.1132,-0.112,-0.1171,-0.117,-0.1053,-0.1042,-0.103,-0.0969,-0.0985,-0.098,-0.0977,-0.0821,-0.082,-0.0819,0,0,0,0,0,0,-0.1444,-0.1427,-0.1277,-0.134,-0.132,-0.1257,-0.1221,-0.1211,-0.1184,-0.1118,-0.1107,-0.1156,-0.1053,-0.1038,-0.0979,-0.0964,-0.0977,-0.0972,-0.0822,-0.0821,-0.082,-0.0847,0,0,0,0,0,0,-0.1449,-0.1429,-0.141,-0.134,-0.1317,-0.1229,-0.122,-0.1208,-0.1175,-0.1172,-0.1101,-0.109,-0.1053,-0.0988,-0.0974,-0.0957,-0.0968,-0.0823,-0.0821,-0.082,-0.0847,-0.0847,-0.0847,0,0,0,0,0,-0.1457,-0.1422,-0.141,-0.1392,-0.1292,-0.1228,-0.1215,-0.1174,-0.1174,-0.1155,-0.1112,-0.1092,-0.0968,-0.0982,-0.0966,-0.0947,-0.0824,-0.0822,-0.082,-0.0847,-0.0847,-0.0847,0,0,0,0,0,0,-0.1492,-0.1412,-0.1397,-0.1339,-0.1291,-0.1221,-0.1195,-0.1175,-0.1125,-0.1124,-0.1075,-0.1059,-0.1004,-0.0969,-0.0986,-0.0896,-0.0895,-0.0889,-0.0921,-0.092,-0.092,-0.0929,-0.0963,0,0,0,0,0,-0.1493,-0.1448,-0.1381,-0.1336,-0.1313,-0.1258,-0.1229,-0.1201,-0.1149,-0.1128,-0.1081,-0.1031,-0.0981,-0.0948,-0.0898,-0.0842,-0.0826,-0.0821,-0.0821,-0.0821,-0.0817,-0.0784,-0.0781,-0.0813,-0.0813,-0.0813,0,0,-0.1495,-0.1446,-0.142,-0.1342,-0.1301,-0.1256,-0.1241,-0.1193,-0.1159,-0.1121,-0.1062,-0.1026,-0.0967,-0.0909,-0.0881,-0.0878,-0.0804,-0.0818,-0.0819,-0.0814,-0.0782,-0.0779,-0.0777,-0.0812,-0.0812,-0.0812,0,0,-0.1474,-0.1433,-0.1391,-0.1351,-0.129,-0.1254,-0.1244,-0.1177,-0.1152,-0.1093,-0.1064,-0.1022,-0.0936,-0.0895,-0.0863,-0.0828,-0.0807,-0.0813,-0.0811,-0.0781,-0.0778,-0.0776,-0.0763,-0.076,-0.0809,-0.0809,-0.0809,0,-0.1484,-0.1414,-0.1372,-0.1326,-0.1292,-0.1257,-0.1214,-0.1177,-0.1103,-0.108,-0.1079,-0.0971,-0.0928,-0.0861,-0.0852,-0.0827,-0.0814,-0.0821,-0.0782,-0.0779,-0.0776,-0.0764,-0.0759,-0.081,-0.081,-0.081,-0.081,0,-0.1429,-0.1381,-0.1355,-0.1285,-0.1249,-0.1204,-0.1155,-0.1123,-0.1099,-0.1064,-0.1004,-0.0952,-0.0891,-0.0873,-0.0848,-0.0802,-0.0802,-0.0792,-0.0789,-0.0775,-0.0763,-0.0758,-0.0812,-0.0812,-0.0811,-0.0811,0,0,-0.1427,-0.1335,-0.1326,-0.1294,-0.1225,-0.1187,-0.1141,-0.1082,-0.1056,-0.1006,-0.0966,-0.0895,-0.0886,-0.0849,-0.082,-0.0793,-0.0769,-0.0786,-0.0784,-0.0785,-0.0715,-0.0723,-0.0718,-0.0756,-0.0755,-0.0754,-0.072,0,-0.1398,-0.1315,-0.1276,-0.121,-0.1166,-0.1132,-0.1092,-0.1045,-0.1011,-0.0967,-0.0929,-0.088,-0.0871,-0.0849,-0.082,-0.0778,-0.0755,-0.078,-0.0718,-0.0716,-0.0734,-0.0712,-0.072,-0.069,-0.0715,-0.0714,-0.0713,0,-0.1352,-0.1303,-0.1234,-0.117,-0.115,-0.1115,-0.1058,-0.1018,-0.0964,-0.094,-0.0901,-0.0872,-0.0823,-0.0824,-0.0755,-0.0773,-0.0745,-0.0721,-0.0719,-0.0711,-0.0714,-0.0703,-0.068,-0.0676,-0.0705,-0.0706,-0.0706,0,-0.1358,-0.1275,-0.1222,-0.1196,-0.112,-0.1097,-0.1064,-0.1011,-0.0978,-0.0928,-0.0907,-0.0852,-0.0822,-0.0779,-0.0737,-0.0742,-0.0672,-0.067,-0.0651,-0.0652,-0.0638,-0.0639,-0.0609,-0.062,-0.062,-0.062,-0.062,0,-0.1329,-0.1288,-0.1224,-0.1192,-0.1145,-0.11,-0.1054,-0.1019,-0.0972,-0.0932,-0.0899,-0.0862,-0.0809,-0.0765,-0.0732,-0.068,-0.0666,-0.0646,-0.0637,-0.0648,-0.0651,-0.0629,-0.063,-0.0619,-0.0619,-0.062,-0.062,0,-0.1327,-0.1283,-0.1224,-0.1157,-0.114,-0.1108,-0.1051,-0.1018,-0.0983,-0.0932,-0.0918,-0.0862,-0.0809,-0.0763,-0.0692,-0.067,-0.0616,-0.0606,-0.0635,-0.063,-0.0614,-0.0617,-0.057,-0.0561,-0.0578,-0.0578,-0.0578,0,-0.1312,-0.128,-0.121,-0.1181,-0.1149,-0.1103,-0.107,-0.1025,-0.0992,-0.0929,-0.0904,-0.0848,-0.0802,-0.0719,-0.0671,-0.0617,-0.0605,-0.0593,-0.0597,-0.0609,-0.0605,-0.0608,-0.0604,-0.0593,-0.0593,-0.0593,-0.0593,0,-0.1289,-0.1269,-0.1223,-0.1169,-0.1131,-0.1086,-0.104,-0.1019,-0.0965,-0.093,-0.0875,-0.0839,-0.0768,-0.0714,-0.0655,-0.062,-0.0597,-0.0592,-0.0585,-0.0596,-0.0614,-0.0604,-0.0635,-0.0593,-0.0593,-0.0593,-0.0593,-0.0593,-0.128,-0.125,-0.1197,-0.1146,-0.1107,-0.1066,-0.1032,-0.0993,-0.0947,-0.0886,-0.0862,-0.0807,-0.0754,-0.0672,-0.0638,-0.0594,-0.059,-0.058,-0.0577,-0.0575,-0.0577,-0.0621,-0.0583,-0.0583,-0.0583,-0.0583,-0.0583,0,-0.1256,-0.122,-0.1175,-0.1112,-0.1073,-0.1055,-0.1004,-0.0972,-0.0924,-0.0877,-0.0832,-0.077,-0.0717,-0.0666,-0.0611,-0.0585,-0.0573,-0.0572,-0.0573,-0.0566,-0.0584,-0.0596,-0.0583,-0.0583,-0.0583,-0.0583,-0.0583,-0.0583,-0.1239,-0.1187,-0.1161,-0.1089,-0.1053,-0.1,-0.0972,-0.0933,-0.0895,-0.0828,-0.0784,-0.0751,-0.0702,-0.0643,-0.0594,-0.058,-0.0561,-0.0563,-0.0546,-0.0564,-0.0565,-0.0565,-0.0576,-0.0559,-0.0559,-0.0532,-0.0532,-0.0531]},{"header":{"parameterUnit":"m.s-1","parameterCategory":1,"la1":30.2991,"la2":30.254,"lo1":-89.0895,"lo2":-89.0444,"dy":0.0017,"dx":0.0017,"nx":28,"ny":28,"refTime":"2024-04-19T21:00:00:Z","depth":0,"parameterNumber":3,"parameterNumberName":"V-component_of_WINDS"},"data":[0,0,0,0,0,0,0,0,0,0,0,0,0,0,0,0,0,0,0,0,0,0,0,0,0,0,0,0,0,0,0,0,0,0,0,0,0,0,0,0,0,0,0,0,0,0,0,0,0,0,0,0,0,0,0,0,0,0,3.2125,3.2124,0,3.2083,3.2082,3.2082,3.2023,3.2022,3.2021,3.202,3.1975,3.1975,3.1974,0,0,0,0,0,0,0,0,0,0,0,0,0,3.2155,3.2154,3.2125,3.2124,3.2124,3.2083,3.2082,3.2081,3.2024,3.2022,3.2021,3.202,3.1975,3.1975,3.1974,0,0,0,0,0,0,0,0,0,0,0,0,0,3.213,3.2154,3.2125,3.209,3.2086,3.2083,3.2082,3.2081,3.2024,3.2022,3.2021,3.2019,3.1975,3.1975,3.1974,3.2001,0,0,3.1973,3.1973,0,0,0,0,0,0,0,0,3.2131,3.2129,3.2096,3.2092,3.2088,3.2057,3.2076,3.2054,3.2024,3.2048,3.202,3.2019,3.2003,3.2,3.1996,3.1999,3.1997,3.1973,3.1973,3.1973,3.1972,0,0,0,0,0,0,0,3.2133,3.213,3.2108,3.2095,3.2091,3.2076,3.2071,3.2071,3.2034,3.2045,3.2041,3.2037,3.2001,3.1996,3.1994,3.1996,3.1973,3.1973,3.1972,3.1972,3.202,3.2022,0,0,0,0,0,0,3.214,3.2132,3.2109,3.2107,3.2107,3.2077,3.2071,3.2068,3.2034,3.2027,3.2038,3.2034,3.1998,3.1995,3.1992,3.2022,3.1973,3.1972,3.1972,3.2019,3.2021,3.2022,0,0,0,0,0,0,3.2141,3.2139,3.2111,3.2118,3.2114,3.2078,3.2075,3.2068,3.2063,3.2029,3.2021,3.204,3.1996,3.1993,3.2,3.202,3.1972,3.1971,3.2017,3.2019,3.2021,3.2081,0,0,0,0,0,0,3.2142,3.2139,3.2149,3.2119,3.2114,3.212,3.2077,3.2069,3.2063,3.2058,3.2029,3.2022,3.1995,3.2001,3.1999,3.2018,3.1971,3.2015,3.2018,3.2021,3.2078,3.2086,3.2092,0,0,0,0,0,3.2143,3.2167,3.215,3.2148,3.2125,3.2121,3.2118,3.2086,3.2065,3.2075,3.2052,3.2023,3.2018,3.2002,3.2,3.2019,3.2014,3.2017,3.202,3.2074,3.2084,3.2092,0,0,0,0,0,0,3.22,3.2163,3.2143,3.2158,3.2143,3.2111,3.2122,3.2098,3.2088,3.2083,3.2044,3.2038,3.205,3.2035,3.2018,3.2043,3.2011,3.2015,3.2053,3.2062,3.2069,3.2073,3.1971,0,0,0,0,0,3.2214,3.2214,3.2181,3.2198,3.2191,3.2159,3.2155,3.2133,3.2115,3.2109,3.2087,3.2071,3.2065,3.2063,3.2056,3.2075,3.2068,3.2087,3.2095,3.2101,3.2104,3.2114,3.2123,3.2034,3.2034,3.2034,0,0,3.2244,3.2223,3.2225,3.2209,3.2194,3.2195,3.2153,3.2156,3.2156,3.2109,3.2114,3.2098,3.2077,3.2091,3.2096,3.2079,3.2128,3.2105,3.2111,3.211,3.2119,3.2127,3.2135,3.2036,3.2036,3.2035,0,0,3.2298,3.2282,3.2294,3.2281,3.2261,3.2239,3.2242,3.2214,3.2202,3.2207,3.2172,3.2171,3.2163,3.215,3.2142,3.2193,3.2166,3.2192,3.2231,3.2241,3.2248,3.2254,3.2273,3.2281,3.2195,3.2195,3.2196,0,3.2336,3.2337,3.2304,3.2309,3.2303,3.2261,3.2273,3.2262,3.224,3.2237,3.2218,3.2208,3.2191,3.2201,3.2214,3.2209,3.2212,3.2195,3.225,3.2256,3.2261,3.2279,3.2286,3.2199,3.2198,3.2198,3.2198,0,3.2386,3.2387,3.2399,3.2381,3.2376,3.2384,3.2352,3.2351,3.2329,3.231,3.2316,3.2294,3.2283,3.2284,3.2262,3.2292,3.2282,3.2257,3.2224,3.2273,3.2289,3.2296,3.2204,3.2202,3.2201,3.2201,0,0,3.2474,3.2438,3.2443,3.2434,3.2409,3.2409,3.2416,3.2406,3.2406,3.2393,3.2398,3.2392,3.237,3.2362,3.2338,3.2347,3.239,3.2321,3.232,3.2335,3.2423,3.2442,3.245,3.2372,3.2373,3.2374,3.2425,0,3.2524,3.2534,3.2505,3.2523,3.2524,3.2484,3.2491,3.2476,3.2458,3.2456,3.2435,3.2432,3.2402,3.2397,3.2405,3.2383,3.2407,3.2379,3.2377,3.2377,3.2384,3.2458,3.2478,3.2527,3.2431,3.2432,3.2432,0,3.2583,3.2574,3.2592,3.2567,3.2566,3.2573,3.2562,3.256,3.2543,3.2529,3.252,3.2493,3.2498,3.2467,3.2474,3.2456,3.2453,3.2442,3.2443,3.2442,3.2408,3.246,3.2542,3.255,3.2442,3.2441,3.244,0,3.2647,3.2639,3.2649,3.2643,3.2613,3.2619,3.2607,3.2588,3.2585,3.2575,3.2572,3.2563,3.2558,3.2551,3.2522,3.2502,3.2533,3.2499,3.2522,3.2523,3.253,3.253,3.2614,3.2528,3.2528,3.2528,3.2527,0,3.2705,3.2718,3.2677,3.2684,3.2697,3.2663,3.2678,3.2662,3.2646,3.2648,3.2613,3.2617,3.2578,3.2577,3.2554,3.2564,3.2562,3.2551,3.2545,3.2555,3.2556,3.2553,3.2549,3.253,3.2529,3.2529,3.2528,0,3.2779,3.2752,3.276,3.2733,3.2726,3.2737,3.2713,3.2718,3.2698,3.2702,3.2701,3.2669,3.2667,3.2637,3.2627,3.2612,3.2631,3.2618,3.2637,3.2633,3.2659,3.2657,3.2743,3.2753,3.266,3.2661,3.2662,0,3.2818,3.2828,3.2801,3.2801,3.2791,3.279,3.2787,3.2754,3.2752,3.2734,3.2741,3.2735,3.2729,3.2726,3.2703,3.2695,3.2682,3.2713,3.2681,3.2691,3.2684,3.2684,3.2685,3.272,3.2721,3.2722,3.2723,0,3.2892,3.2878,3.2875,3.2867,3.2864,3.2855,3.2845,3.2847,3.2811,3.281,3.2807,3.2802,3.2793,3.2789,3.2777,3.2765,3.2738,3.2733,3.2738,3.2748,3.276,3.2755,3.2657,3.2731,3.273,3.273,3.2729,3.2729,3.295,3.2957,3.294,3.2937,3.2926,3.2918,3.2921,3.2902,3.2899,3.289,3.2871,3.2871,3.2855,3.2837,3.2827,3.2827,3.2811,3.2818,3.282,3.2822,3.2828,3.276,3.2824,3.2824,3.2824,3.2823,3.2823,0,3.3023,3.301,3.3008,3.2995,3.2993,3.2969,3.2957,3.2957,3.2958,3.2945,3.294,3.2937,3.2933,3.2909,3.2902,3.2907,3.2894,3.2906,3.2906,3.2903,3.2842,3.2839,3.2916,3.2916,3.2916,3.2916,3.2916,3.2916,3.306,3.3071,3.3056,3.3061,3.3048,3.3048,3.3044,3.3036,3.3025,3.3024,3.3021,3.3006,3.2989,3.298,3.2975,3.2968,3.2968,3.2984,3.2973,3.2916,3.2907,3.2899,3.2896,3.2984,3.2984,3.3034,3.3035,3.3035]}]]